Terminal Aerodrome Forecast
Issued by NWS Albany, NY

Home | Current Version | Previous Version | Text Only | Print | Product List | Glossary On
Versions: 1 2 3 4 5 6 7 8 9 10 11 12 13 14 15 16 17
000
FTUS41 KALY 300500 RRA
TAFALB
TAF
KALB 300542Z 3006/3106 17008KT P6SM FEW060 SCT250
     FM301500 18010G15KT P6SM SCT050 SCT150 BKN250=

USA.gov is the U.S. government's official web portal to all federal, state and local government web resources and services.